Weather History for Idabel, OK

Change the Weather History Date:

Sunday, February 10, 2013

  Actual Average (KDEQ) Record (KDEQ)
Temperature  
Mean Temperature 52 °F 44 °F  
Max Temperature 64 °F 57 °F 80 °F (1976)
Min Temperature 41 °F 31 °F 10 °F (1947)
Degree Days  
Heating Degree Days 12 21  
Month to date heating degree days 221  
Since 1 July heating degree days 2157  
Cooling Degree Days 0 0  
Month to date cooling degree days 0  
Year to date cooling degree days 1  
Growing Degree Days 2 (Base 50)    
Moisture  
Dew Point 38 °F    
Average Humidity 61    
Maximum Humidity 100    
Minimum Humidity 24    
Precipitation  
Precipitation 0.39 in 0.15 in 1.60 in (1981)
Month to date precipitation 1.54  
Year to date precipitation 4.86  
Snow  
Snow 0.00 in - - ()
Month to date snowfall  
Since 1 July snowfall  
Snow Depth -    
Sea Level Pressure  
Sea Level Pressure 29.84 in    
Wind  
Wind Speed 10 mph (WSW)    
Max Wind Speed 21 mph    
Max Gust Speed 28 mph    
Visibility 8 miles    
Events      
T = Trace of Precipitation, MM = Missing Value Source: NWS Daily Summary

Daily Weather History Graph

Daily Weather History Graph

Search for Another Location

Airport:

Trip Planner

Search our weather history database for the weather conditions in past years. The results will help you decide how hot, cold, wet, or windy it might be!

Date:

Astronomy

Feb. 10, 2013 Rise Set
Actual Time 7:08 AM CST 5:59 PM CST
Civil Twilight 6:42 AM CST 6:24 PM CST
Nautical Twilight 6:13 AM CST 6:54 PM CST
Astronomical Twilight 5:44 AM CST 7:23 PM CST
Moon 7:02 AM CST (2/10) 6:45 PM CST (2/10)
Length of Visible Light 11h 42m
Length of Day
10h 50m
Waxing Crescent, 0% of the Moon is Illuminated
Feb 10
Waxing Crescent
Feb 17
First Quarter
Feb 25
Full
Mar 4
Last Quarter
Mar 11
New

Hourly Weather History & Observations

Time (CST) Temp. Windchill Dew Point Humidity Pressure Visibility Wind Dir Wind Speed Gust Speed Precip Events Conditions
12:15 AM 46.4 °F 41.5 °F 44.6 °F 93% 29.86 in 7.0 mi East 10.4 mph - N/A   Overcast
12:35 AM 46.4 °F 41.5 °F 44.6 °F 93% 29.86 in 7.0 mi East 10.4 mph - N/A   Overcast
12:55 AM 46.4 °F 41.5 °F 44.6 °F 93% 29.84 in 7.0 mi East 10.4 mph - N/A   Overcast
1:15 AM 46.4 °F 41.5 °F 44.6 °F 93% 29.83 in 7.0 mi East 10.4 mph - N/A   Overcast
1:35 AM 46.4 °F 41.1 °F 44.6 °F 93% 29.81 in 5.0 mi East 11.5 mph - N/A   Overcast
1:55 AM 46.4 °F 40.4 °F 44.6 °F 93% 29.79 in 5.0 mi East 13.8 mph - N/A   Overcast
2:15 AM 46.4 °F 40.4 °F 44.6 °F 93% 29.76 in 5.0 mi East 13.8 mph - N/A   Overcast
2:35 AM 48.2 °F - 46.4 °F 93% 29.76 in 5.0 mi ESE 12.7 mph 18.4 mph N/A   Overcast
2:55 AM 48.2 °F - 46.4 °F 93% 29.75 in 4.0 mi East 12.7 mph - N/A   Overcast
3:15 AM 48.2 °F - 46.4 °F 93% 29.74 in 2.5 mi ESE 13.8 mph - N/A   Overcast
3:35 AM 50.0 °F - 46.4 °F 87% 29.73 in 1.8 mi ESE 13.8 mph - N/A   Overcast
3:55 AM 51.8 °F - 50.0 °F 94% 29.74 in 1.8 mi SE 13.8 mph - N/A   Overcast
4:15 AM 53.6 °F - 51.8 °F 94% 29.74 in 1.8 mi SE 12.7 mph - N/A   Overcast
4:35 AM 53.6 °F - 53.6 °F 100% 29.72 in 1.8 mi SE 16.1 mph 20.7 mph 0.01 in   Overcast
4:55 AM 55.4 °F - 53.6 °F 94% 29.72 in 3.0 mi SSE 15.0 mph - 0.03 in   Overcast
5:15 AM 55.4 °F - 53.6 °F 94% 29.81 in 1.2 mi West 20.7 mph 27.6 mph 0.17 in   Overcast
5:35 AM 55.4 °F - 53.6 °F 94% 29.78 in 2.5 mi SSW 12.7 mph - 0.29 in   Overcast
5:55 AM 55.4 °F - 53.6 °F 94% 29.74 in 5.0 mi SSE 11.5 mph - 0.34 in   Overcast
6:15 AM 53.6 °F - 51.8 °F 94% 29.72 in 7.0 mi SSE 12.7 mph 17.3 mph 0.01 in   Mostly Cloudy
6:35 AM 53.6 °F - 51.8 °F 94% 29.76 in 10.0 mi South 11.5 mph - 0.01 in   Mostly Cloudy
6:55 AM 53.6 °F - 51.8 °F 94% 29.77 in 10.0 mi SSW 8.1 mph - 0.02 in   Overcast
7:15 AM 53.6 °F - 51.8 °F 94% 29.76 in 10.0 mi South 8.1 mph - N/A   Overcast
7:35 AM 53.6 °F - 51.8 °F 94% 29.77 in 10.0 mi SSW 5.8 mph - N/A   Mostly Cloudy
7:55 AM 53.6 °F - 51.8 °F 94% 29.77 in 10.0 mi SSW 4.6 mph - N/A   Scattered Clouds
8:15 AM 53.6 °F - 51.8 °F 94% 29.77 in 10.0 mi SW 3.5 mph - N/A   Clear
8:35 AM 53.6 °F - 51.8 °F 94% 29.79 in 10.0 mi SSW 5.8 mph - N/A   Clear
8:55 AM 55.4 °F - 53.6 °F 94% 29.80 in 10.0 mi West 8.1 mph - N/A   Clear
9:15 AM 55.4 °F - 51.8 °F 88% 29.80 in 10.0 mi West 10.4 mph - N/A   Clear
9:35 AM 55.4 °F - 46.4 °F 72% 29.81 in 10.0 mi West 9.2 mph - N/A   Clear
9:55 AM 59.0 °F - 41.0 °F 51% 29.82 in 10.0 mi West 9.2 mph 16.1 mph N/A   Clear
10:15 AM 59.0 °F - 37.4 °F 45% 29.82 in 10.0 mi West 13.8 mph 17.3 mph N/A   Clear
10:35 AM 59.0 °F - 35.6 °F 42% 29.83 in 10.0 mi West 13.8 mph 17.3 mph N/A   Clear
10:55 AM 60.8 °F - 35.6 °F 39% 29.83 in 10.0 mi West 12.7 mph 17.3 mph N/A   Clear
11:15 AM 60.8 °F - 32.0 °F 34% 29.84 in 10.0 mi West 11.5 mph 20.7 mph N/A   Clear
11:35 AM 60.8 °F - 33.8 °F 36% 29.82 in 10.0 mi Calm Calm - N/A   Clear
11:55 AM 62.6 °F - 32.0 °F 32% 29.82 in 10.0 mi West 10.4 mph - N/A   Clear
12:15 PM 62.6 °F - 32.0 °F 32% 29.82 in 10.0 mi West 12.7 mph 18.4 mph N/A   Clear
12:35 PM 64.4 °F - 33.8 °F 32% 29.81 in 10.0 mi WSW 11.5 mph - N/A   Clear
12:55 PM 64.4 °F - 32.0 °F 30% 29.81 in 10.0 mi WSW 13.8 mph - N/A   Clear
1:15 PM 64.4 °F - 32.0 °F 30% 29.80 in 10.0 mi WSW 15.0 mph - N/A   Clear
1:35 PM 64.4 °F - 30.2 °F 28% 29.80 in 10.0 mi West 13.8 mph 18.4 mph N/A   Clear
1:55 PM 64.4 °F - 30.2 °F 28% 29.80 in 10.0 mi West 12.7 mph 18.4 mph N/A   Clear
2:15 PM 64.4 °F - 30.2 °F 28% 29.80 in 10.0 mi West 11.5 mph 18.4 mph N/A   Clear
2:35 PM 64.4 °F - 28.4 °F 26% 29.81 in 10.0 mi West 13.8 mph 19.6 mph N/A   Clear
2:55 PM 64.4 °F - 28.4 °F 26% 29.81 in 10.0 mi West 9.2 mph - N/A   Clear
3:15 PM 64.4 °F - 28.4 °F 26% 29.82 in 10.0 mi West 8.1 mph - N/A   Clear
3:35 PM 64.4 °F - 26.6 °F 24% 29.82 in 10.0 mi West 12.7 mph 18.4 mph N/A   Clear
3:55 PM 64.4 °F - 26.6 °F 24% 29.82 in 10.0 mi West 10.4 mph 17.3 mph N/A   Clear
4:15 PM 62.6 °F - 28.4 °F 27% 29.84 in 10.0 mi West 12.7 mph 16.1 mph N/A   Clear
4:35 PM 62.6 °F - 26.6 °F 26% 29.84 in 10.0 mi West 10.4 mph - N/A   Clear
4:55 PM 62.6 °F - 26.6 °F 26% 29.84 in 10.0 mi West 6.9 mph - N/A   Clear
5:15 PM 60.8 °F - 26.6 °F 27% 29.85 in 10.0 mi West 9.2 mph - N/A   Clear
5:35 PM 60.8 °F - 28.4 °F 29% 29.87 in 10.0 mi West 5.8 mph - N/A   Clear
5:55 PM 59.0 °F - 28.4 °F 31% 29.88 in 10.0 mi West 4.6 mph - N/A   Clear
6:15 PM 57.2 °F - 28.4 °F 33% 29.89 in 10.0 mi WSW 3.5 mph - N/A   Clear
6:35 PM 55.4 °F - 28.4 °F 36% 29.90 in 10.0 mi WSW 3.5 mph - N/A   Clear
6:55 PM 53.6 °F - 28.4 °F 38% 29.91 in 10.0 mi WSW 5.8 mph - N/A   Clear
7:15 PM 51.8 °F - 30.2 °F 44% 29.92 in 10.0 mi SW 4.6 mph - N/A   Clear
7:35 PM 50.0 °F - 30.2 °F 47% 29.93 in 10.0 mi WSW 4.6 mph - N/A   Clear
7:55 PM 50.0 °F - 32.0 °F 50% 29.94 in 10.0 mi West 5.8 mph - N/A   Clear
8:15 PM 48.2 °F - 32.0 °F 54% 29.95 in 10.0 mi West 4.6 mph - N/A   Clear
8:35 PM 48.2 °F - 32.0 °F 54% 29.96 in 10.0 mi West 5.8 mph - N/A   Clear
8:55 PM 48.2 °F - 32.0 °F 54% 29.97 in 10.0 mi WSW 5.8 mph - N/A   Clear
9:15 PM 46.4 °F 44.3 °F 32.0 °F 57% 29.98 in 10.0 mi WSW 4.6 mph - N/A   Clear
9:35 PM 44.6 °F - 32.0 °F 61% 29.99 in 10.0 mi Calm Calm - N/A   Clear
9:55 PM 44.6 °F - 32.0 °F 61% 30.01 in 10.0 mi Calm Calm - N/A   Clear
10:15 PM 44.6 °F - 28.4 °F 53% 30.01 in 10.0 mi Calm Calm - N/A   Clear
10:35 PM 44.6 °F 43.1 °F 30.2 °F 57% 30.01 in 10.0 mi NW 3.5 mph - N/A   Clear
10:55 PM 44.6 °F 43.1 °F 30.2 °F 57% 30.02 in 10.0 mi WNW 3.5 mph - N/A   Clear
11:15 PM 42.8 °F - 32.0 °F 66% 30.01 in 10.0 mi Calm Calm - N/A   Clear
11:35 PM 41.0 °F 39.0 °F 30.2 °F 65% 30.01 in 10.0 mi NNW 3.5 mph - N/A   Clear
11:55 PM 41.0 °F - 28.4 °F 61% 30.02 in 10.0 mi Calm Calm - N/A   Clear